Printer-friendly version

IAU Minor Planet Center

Minor Planet Center

MPEC 2000-C49: 2000 BD19

The following Minor Planet Electronic Circular may be linked-to from your own Web pages, but must not otherwise be redistributed electronically.


Read MPEC 2000-C48 Read MPEC 2000-C50


M.P.E.C. 2000-C49                                Issued 2000 Feb. 12, 18:38 UT

     The Minor Planet Electronic Circulars contain information on unusual
         minor planets and routine data on comets.  They are published
   on behalf of Commission 20 of the International Astronomical Union by the
          Minor Planet Center, Smithsonian Astrophysical Observatory,
                          Cambridge, MA 02138, U.S.A.

             Prepared using the Tamkin Foundation Computer Network

             BMARSDEN@CFA.HARVARD.EDU or GWILLIAMS@CFA.HARVARD.EDU
          URL http://cfa-www.harvard.edu/iau/mpc.html  ISSN 1523-6714

                                   2000 BD19

                           Revision to MPEC 2000-C09

Observations:
     K00B19D 5 1997 02 10.43403 13 10 08.11 +76 20 55.6                      675
     K00B19D 5 1997 02 10.47570 13 11 10.48 +76 39 47.8                      675

Observer details:
675 Palomar Mountain.  Trail located and measured by DANEOPS (A. Gnadig).
    1.2-m Schmidt.

Orbital elements:
2000 BD19
Id. DANEOPS (1997 observations)
Epoch 2000 Feb. 26.0 TT = JDT 2451600.5                 Williams
M 202.25934              (2000.0)            P               Q
n   1.20127534     Peri.  324.18405     +0.49579840     +0.84728395
a   0.8764107      Node   333.87817     -0.66143556     +0.22626851
e   0.8951345      Incl.   25.63900     -0.56274946     +0.48053353
P   0.82           H   16.7           G   0.15           U   6
Residuals in seconds of arc
970210 675  0.9-  0.4-    000127 118  0.2-  0.5+    000131 704  0.1+  0.2+
970210 675  0.9+  0.4+    000127 118  0.2+  0.3+    000131 704  0.4+  0.2-
000126 704  0.4+  0.5+    000127 118  0.2+  0.2+    000131 704  0.5+  0.2-
000126 704  0.1-  0.3+    000128 461  0.5-  0.1+    000201 118  1.2+  0.4+
000126 704  0.1-  0.6+    000128 461  0.7-  0.1-    000201 118  1.5+  0.2+
000126 587  0.3-  0.6-    000128 461  0.4-  0.2+    000202 704  0.0   0.1+
000126 587  0.4+  0.4+    000128 461  0.8-  0.1-    000202 704  0.8+  0.9+
000126 587  0.2+  0.0     000128 461  0.4-  0.2-    000202 704  0.7+  0.3+
000127 012  0.0   0.6+    000128 402  0.2-  0.2+    000202 704  0.1-  0.3-
000127 012  0.5-  0.4-    000128 402  0.3+  0.9-    000202 557  0.6-  0.0
000127 012  1.1-  0.5-    000128 402  0.3-  0.9-    000202 557  0.1+  0.9+
000127 012  0.4-  0.1-    000128 402  0.7+  0.8-    000202 557  0.2+  0.5+
000127 704  0.4+  0.1-    000128 118  0.4+  1.6+    000202 557  0.5+  0.2+
000127 012  0.7-  0.5-    000128 118  0.1+  0.2-    000203 704  0.6+  0.3+
000127 704  0.0   0.5+    000128 118  0.4+  0.4-    000203 704  0.2+  0.1-
000127 658  0.1-  0.1+    000129 704  0.7+  0.4+    000203 704  0.2+  0.5-
000127 658  0.3-  0.5+    000129 704  0.1+  0.1-    000203 704  0.3+  0.1-
000127 704  0.0   0.9-    000129 704  0.1+  0.0     000210 046  0.2-  0.4+
000127 658  0.0   0.1-    000129 704  0.2+  0.1-    000210 118  0.1-  0.5+
000127 704  0.3-  0.6+    000130 704  0.1+  0.2-    000210 046  0.5+  0.1-
000127 704  0.1+  0.2+    000130 704  0.3+  0.3+    000210 046  0.8+  0.0
000127 046  0.0   0.2-    000130 704  0.4+  0.5-    000210 118  0.8+  0.1-
000127 046  0.1+  1.0+    000130 858  0.3+  0.1-    000210 118  0.4-  0.4-
000127 046  1.2+  0.5-    000130 858  0.0   0.1-    000211 611  1.2-  0.1-
000127 046  0.6-  0.3+    000130 858  0.3-  0.1-    000211 611  0.9-  0.7-
000127 046  1.9-  0.3+    000130 557  0.3-  0.1-    000211 611  0.6-  0.6-
000127 046  1.2-  1.2-    000130 557  0.9-  0.3-
000127 046  0.2+  0.7-    000130 557  0.1-  0.2+

Ephemeris:
2000 BD19                a,e,i = 0.88, 0.90, 26                  q = 0.0919
Date    TT    R. A. (2000) Decl.     Delta      r     Elong.  Phase     V
2000 02 06    06 48.61   +53 49.7    0.827    1.661   132.5    26.0    18.6
2000 02 11    06 27.03   +51 53.7    0.868    1.660   126.9    28.4    18.7
2000 02 16    06 10.85   +49 49.9    0.914    1.657   121.2    30.6    18.9
2000 02 21    05 59.20   +47 46.7    0.965    1.652   115.5    32.7    19.1
2000 02 26    05 51.19   +45 49.3    1.018    1.644   109.9    34.5    19.2
2000 03 02    05 46.10   +44 00.0    1.073    1.634   104.6    35.9    19.4
2000 03 07    05 43.32   +42 19.7    1.130    1.622    99.5    37.1    19.5
2000 03 12    05 42.40   +40 48.3    1.186    1.606    94.6    38.1    19.6
2000 03 17    05 42.96   +39 25.3    1.241    1.589    89.9    38.8    19.7
2000 03 22    05 44.72   +38 09.7    1.294    1.568    85.4    39.3    19.8
2000 03 27    05 47.45   +37 00.4    1.345    1.545    81.1    39.6    19.9
2000 04 01    05 51.00   +35 56.6    1.394    1.520    76.9    39.8    19.9
2000 04 06    05 55.25   +34 57.2    1.439    1.491    72.9    39.9    19.9
2000 04 11    06 00.07   +34 01.6    1.480    1.459    69.0    39.9    19.9
2000 04 16    06 05.39   +33 08.7    1.516    1.425    65.2    39.8    19.9
2000 04 21    06 11.13   +32 18.0    1.548    1.387    61.6    39.6    19.9
2000 04 26    06 17.23   +31 28.7    1.574    1.346    58.0    39.4    19.9

Gareth V. Williams           (C) Copyright 2000 MPC           M.P.E.C. 2000-C49

Read MPEC 2000-C48 Read MPEC 2000-C50


Our Web policy. Index to the CBAT/MPC/ICQ pages.


Valid HTML 4.01!